Main page
METAR-TAF:

METAR-TAF

Airports :

Millard Airport

Omaha, Nebraska, United States

latitude: 41-11-45N, longitude: 096-06-44W, elevation: 1050 ft

Current weather observation

The report was made 16 minutes ago, at 15:55 UTC
Wind 12 mph from the Northwest
Temperature 72°F
Humidity 41%
Pressure 30.20 in. Hg
Visibility: 10 miles
Clear sky

METAR: KMLE 291555Z AUTO 32010KT 10SM CLR 22/08 A3020 RMK AO2 T02180083

Time: 11:11 (16:11 UTC)


TAF: missing

Weather observations and forecasts of more than 4000 airports (METAR and TAF reports).

The available stations are represented by yellow and red dots on the map.

Hover mouse over dot to see the name of the station.

Then click to see weather observations and forecasts.

To change the map : click on the green buttons with a black cross to zoom in, on the green button with a dash to zoom out, or on the green arrows for adjacent maps.


METAR-TAF: